Regional Weather Roundup
Issued by NWS Portland, ME

Home | Current Version | Previous Version | Text Only | Print | Product List | Glossary On
Versions: 1 2 3 4 5 6 7 8 9 10 11 12 13 14 15 16 17 18 19 20 21 22 23 24 25 26 27 28 29 30 31 32 33 34 35 36 37 38 39 40 41 42 43 44 45 46 47 48 49 50
049
ASUS41 KGYX 301310
RWRGYX
WEATHER ROUNDUP FOR MAINE AND NEW HAMPSHIRE
NATIONAL WEATHER SERVICE GRAY ME
900 AM EDT SUN APR 30 2017

MEZ002-005-006-010-012-015-018-020-021-024-026-027-029-301400-
MAINE

CITY           SKY/WX    TMP DP  RH WIND       PRES   REMARKS
PORTLAND       MOSUNNY   48  26  42 N10       30.30R
SANFORD        SUNNY     47  27  45 VRB5      30.30R
BAR HARBOR     SUNNY     44  26  49 N14G20    30.25R
WISCASSET      SUNNY     47  26  44 N6        30.30R
ROCKLAND       SUNNY     44  26  49 VRB6      30.28R
FRYEBURG       CLOUDY    46  25  43 E5        30.28S
LEWISTONAUBURN CLOUDY    44  25  47 N9        30.30R
AUGUSTA        SUNNY     43  23  45 N15       30.28R
BANGOR         MOSUNNY   43  24  47 N18       30.26R
GREENVILLE       N/A     36  23  59 N14G23    30.22R
MILLINOCKET    SUNNY     42  23  46 N12G25    30.28R
HOULTON        SUNNY     42  23  46 N16G30    30.24S
PRESQUE ISLE   SUNNY     40  23  50 N15G24    30.28R
FRENCHVILLE    SUNNY     39  20  46 NW17G23   30.25R
CARIBOU        SUNNY     41  24  51 NW16      30.25S
$$

NHZ002-005-008-009-011-012-014-301400-
NEW HAMPSHIRE

CITY           SKY/WX    TMP DP  RH WIND       PRES   REMARKS
PORTSMOUTH     PTSUNNY   48  25  40 W3        30.29R
ROCHESTER      SUNNY     48  27  44 VRB5      30.29R
NASHUA         CLOUDY    48  27  44 VRB3        N/A
MANCHESTER     CLOUDY    48  23  37 NW6       30.29R
CONCORD        PTSUNNY   48  26  42 NW7       30.30R
LACONIA        MOSUNNY   46  25  43 SE3       30.29R
PLYMOUTH       FAIR      44  26  49 W7        30.29R
BERLIN         CLOUDY    40  21  46 CALM      30.27F
WHITEFIELD     SUNNY     40  22  48 NW6       30.29F
JAFFREY        PTSUNNY   48  27  44 N5        30.29R
KEENE          CLOUDY    46  25  43 N8        30.29F
LEBANON        CLOUDY    45  26  47 NE7       30.30R
MT WASHINGTON  PTSUNNY   36  19  51 NW37G44     N/A
$$

VTZ005-007-008-301400-
VERMONT

CITY           SKY/WX    TMP DP  RH WIND       PRES   REMARKS
ST JOHNSBURY     N/A     41  23  48 MISG      30.29F
MONTPELIER     CLOUDY    40  25  55 NE10      30.33R
BURLINGTON     CLOUDY    43  24  47 NE7       30.33R
$$

MAZ007-012-024-CTZ003-RIZ002-NYZ038-NYZ072-301400-
SOUTHERN NEW ENGLAND AND NY

CITY           SKY/WX    TMP DP  RH WIND       PRES   REMARKS
BOSTON         PTSUNNY   49  36  61 E16       30.30R
WORCESTER      MOSUNNY   50  27  40 N8        30.26S
NANTUCKET      SUNNY     51  36  56 NE20      30.29R
PROVIDENCE     MOSUNNY   58  35  42 NE13      30.28R
HARTFORD       MOSUNNY   55  32  41 NE10      30.28R
ALBANY         CLOUDY    46  27  47 N10       30.30F
NEW YORK CITY  CLOUDY    60  38  43 NE12      30.24R
$$

ANZ081-ANZ082-ANZ150-NHZ014-MEZ023>029-301400-
COASTAL MARINE OBSERVATIONS

STATION/POSITION TIME  TEMP    WIND        PRES    WAVE
                       AIR SEA DIR/SP/G            HT/PER
                 (UTC) (F)     (DEG/KT/KT) (MB)    (FT/S)
MOUNT DESERT ROC 1300   40                 1024.7R
MATINICUS ROCK   1200   41      20/ 16/ 19 1023.6R
ISLE OF SHOALS   1200   44      30/ 13/ 14 1025.5R
JEFFREYS LEDGE   1206      45                N/A     4/ 6
CASHES LEDGE BUO 1150   44 43              1024.5    5/ 5
GEORGES BANK BUO 1150   43 40              1021.9    5/ 8
$$

.............KEY..............
   WCI - WIND CHILL
   TC  - TEMPERATURE IN CELSIUS
   VSB - VISIBILITY IN MILES
   HX  - HEAT INDEX
   FAIR- INDICATES FEW OR NO CLOUDS BELOW 12,000 FT, WITH NO
         SIGNIFICANT WEATHER AND/OR OBSTRUCTIONS TO VISIBILITY.






USA.gov is the U.S. government's official web portal to all federal, state and local government web resources and services.